GFSWCAN_925_spd_000.txt.gz
Wind_Speed
29 26 23 19 18 17 15 12 9 6 4 3 1 2 4 5 5 6 2 6 3 3 3 5 1 8 4 6 5 8 4 2 2 3 3 2 2 4 2 3 6 7 7 4 3 3 6 2 2 1 4 6 4 2
21 27 23 20 17 15 13 11 8 6 4 2 1 1 3 4 4 3 0 6 8 3 4 5 6 6 6 8 5 8 3 6 4 3 2 1 2 2 2 3 8 4 6 4 9 5 8 2 5 4 2 3 2 3
20 21 20 18 15 14 12 10 8 6 4 3 1 1 2 3 3 3 4 3 3 2 3 4 3 4 3 5 5 3 1 3 6 5 4 3 3 4 4 5 2 3 7 3 2 7 9 5 3 8 6 2 2 4
18 18 16 13 11 13 12 11 9 7 5 4 3 2 1 2 2 2 3 3 2 6 4 2 3 3 2 2 2 3 7 8 9 5 3 3 3 8 5 6 3 5 5 6 9 12 9 8 5 6 3 5 5 6
18 16 14 12 8 7 12 13 12 9 7 5 3 3 2 1 1 3 2 2 2 4 3 1 2 2 2 4 5 7 13 6 3 3 2 4 2 1 3 1 4 6 10 7 8 4 2 4 4 3 4 3 6 4
17 17 14 11 9 5 4 13 14 12 9 6 3 2 3 3 2 0 2 2 1 4 3 2 2 3 3 5 7 8 9 4 4 4 3 3 6 3 3 3 8 11 9 7 8 4 3 2 5 3 4 3 5 4
16 17 16 11 10 9 3 4 15 14 11 8 5 3 3 3 1 2 1 2 2 3 2 1 2 1 3 6 3 2 2 1 1 2 3 2 2 3 4 5 8 9 10 9 6 5 3 3 3 5 4 1 2 4
12 13 14 13 11 10 9 3 7 15 13 10 7 4 4 3 2 2 2 1 3 1 1 3 2 1 3 2 1 4 2 2 1 1 2 2 2 2 4 7 8 11 7 9 6 2 4 2 6 4 3 2 5 7
11 10 11 11 10 8 7 7 2 12 14 12 8 5 2 2 4 2 3 2 1 2 2 2 6 4 6 2 2 2 1 1 1 1 2 1 3 6 7 8 8 7 5 8 5 6 5 3 3 2 2 4 6 8
12 12 12 13 13 8 4 5 3 3 18 15 9 3 1 3 6 9 2 1 2 2 1 3 3 3 5 1 1 2 2 1 2 2 1 2 5 10 10 5 2 8 7 6 5 6 6 3 1 2 4 7 8 8
12 11 12 14 15 10 7 6 3 7 10 5 3 1 1 9 4 0 2 2 2 3 3 3 4 4 3 3 3 0 3 2 3 2 3 3 3 7 12 7 4 5 7 6 8 8 7 2 2 4 4 5 4 8
11 11 11 12 11 12 10 8 7 5 4 6 9 7 4 3 2 4 5 2 4 5 3 4 2 3 2 1 3 2 3 2 5 5 2 3 3 7 10 9 7 8 11 11 9 7 4 2 5 5 4 7 12 13
8 8 10 9 8 10 13 15 15 17 10 6 6 3 2 2 3 3 5 3 3 2 2 2 3 2 2 2 3 2 6 5 1 3 3 1 6 7 10 8 9 14 15 9 6 4 5 6 8 10 12 14 15 16
4 6 8 9 7 8 9 9 8 6 6 3 1 3 1 2 1 1 2 2 2 2 3 3 3 2 1 2 2 4 1 2 3 3 3 4 5 7 8 7 9 9 9 6 3 3 6 9 12 14 15 16 16 19
4 3 5 7 7 6 3 2 3 6 3 2 0 2 2 1 1 2 1 1 3 1 2 2 2 2 2 3 1 3 4 3 3 1 2 3 6 9 7 7 7 6 5 1 2 6 9 14 16 17 17 17 17 17
4 3 2 1 4 6 6 5 5 4 3 2 2 2 1 0 2 2 2 2 1 1 1 2 2 2 2 2 2 2 2 1 2 2 2 4 6 6 4 4 5 2 0 4 7 11 14 15 15 17 17 19 23 21
3 3 1 3 3 5 4 4 3 2 2 1 1 1 1 2 2 1 1 1 3 2 2 1 2 4 1 0 0 1 0 2 1 1 4 5 4 3 1 2 3 5 7 10 12 13 15 17 16 12 15 22 19 19
1 4 1 5 4 3 3 4 1 1 1 2 2 2 1 2 1 1 1 1 0 1 0 2 2 2 1 1 1 2 2 2 2 1 3 3 2 2 5 7 8 10 11 13 14 16 16 17 13 15 19 20 15 13
5 4 1 7 2 3 2 2 3 0 2 1 2 2 2 2 2 4 2 3 3 2 2 1 1 2 1 2 1 1 1 0 1 1 0 4 5 6 7 9 11 13 14 15 15 14 15 16 18 19 19 16 14 15
7 5 4 9 3 3 1 1 1 1 1 3 1 2 2 2 1 1 1 1 1 1 1 1 1 2 1 1 1 2 3 3 1 1 3 3 8 5 9 10 10 12 14 15 16 16 15 15 16 18 19 18 15 10
7 8 4 6 1 1 1 2 2 0 2 2 1 1 2 2 1 1 1 1 1 1 2 3 2 2 2 3 3 4 3 1 2 2 4 4 7 9 10 13 14 13 11 11 12 14 16 16 17 18 19 12 8 10
3 10 4 4 1 2 1 1 1 2 1 2 2 1 2 2 2 1 1 1 2 4 3 2 3 2 3 3 4 5 4 3 4 7 9 10 4 7 8 8 10 10 11 13 15 15 16 16 17 20 20 20 18 18
9 11 4 3 2 3 3 1 1 3 3 4 1 3 2 2 1 1 2 3 3 4 6 5 3 4 3 5 2 5 6 5 6 7 8 8 10 11 12 13 15 14 13 16 17 17 15 13 17 17 18 19 17 16
8 2 4 4 3 3 3 3 2 3 3 3 4 3 3 2 2 2 2 2 0 2 1 1 2 3 5 1 4 1 5 6 8 9 8 9 11 14 16 17 18 20 18 17 17 16 17 19 19 17 16 14 15 14
4 4 3 4 3 4 4 6 4 3 3 4 4 3 3 3 3 3 2 3 5 5 5 9 6 2 1 1 2 8 19 19 14 11 15 16 17 17 16 16 18 18 22 22 17 14 13 14 14 14 15 12 14 16
3 3 2 3 3 3 4 5 5 5 4 4 3 3 3 3 3 3 2 3 5 5 6 6 6 5 5 13 9 13 15 19 17 14 15 19 20 19 17 14 14 13 18 20 21 18 17 17 15 14 10 13 15 12
3 3 2 2 1 4 3 3 3 3 4 4 4 5 4 3 4 2 4 7 3 6 7 8 9 8 8 10 10 12 12 14 14 16 20 19 11 12 15 14 14 16 19 18 18 18 17 16 14 12 13 12 10 12
2 2 3 2 2 1 3 3 3 3 3 4 6 4 3 3 2 3 3 5 6 6 5 8 11 9 9 10 10 9 11 15 16 14 13 7 11 17 22 20 20 21 20 19 19 19 18 16 16 13 12 12 13 5
3 2 2 3 1 2 1 2 2 1 2 3 4 3 3 3 4 5 6 6 6 7 8 9 10 11 9 10 10 8 10 13 15 11 11 7 13 17 25 23 23 23 22 22 20 19 19 18 15 12 12 7 8 8
2 3 2 1 1 2 3 4 2 2 4 3 2 3 4 4 7 7 7 8 9 9 8 7 8 10 10 10 10 11 8 11 13 12 9 9 16 22 23 23 25 23 23 22 22 22 18 18 15 7 7 8 9 9
1 1 2 2 2 3 3 1 0 0 0 1 2 2 3 4 5 8 10 8 7 7 8 8 8 9 10 10 10 11 10 10 14 11 13 15 17 20 22 24 23 22 21 20 20 18 16 14 11 10 8 10 10 10
2 4 3 1 3 2 1 1 1 1 1 1 2 3 4 3 3 4 6 8 6 7 8 8 9 10 11 10 9 7 10 12 13 15 16 16 18 21 22 23 21 20 19 19 17 13 12 11 9 9 9 10 9 10
1 2 2 2 0 1 2 3 2 1 2 2 3 3 4 4 4 3 3 6 5 5 6 8 9 11 12 6 10 11 9 13 16 17 17 19 20 22 22 20 19 17 19 16 15 11 9 9 8 9 9 8 8 8

GFSWCAN_925_spd_003.txt.gz
Wind_Speed
31 27 24 23 21 19 16 14 11 9 6 4 4 5 7 7 7 6 6 9 3 3 3 7 7 5 4 5 5 5 4 4 3 3 3 3 2 4 3 6 6 7 6 4 2 2 7 6 2 7 5 4 6 5
29 27 25 22 20 18 15 12 10 7 6 3 4 4 5 6 6 7 5 9 8 5 3 6 11 11 7 3 6 3 6 4 5 4 1 2 1 1 3 3 4 2 7 6 8 6 7 6 6 5 6 6 5 4
30 27 25 22 20 17 14 12 9 7 5 3 3 3 4 6 7 9 7 10 5 4 4 4 4 7 7 11 6 5 3 5 4 3 3 3 3 4 4 5 1 3 5 3 4 4 4 7 4 5 5 6 6 6
27 26 24 21 18 16 14 12 9 6 4 2 2 3 3 4 6 8 7 8 6 6 4 4 1 3 4 6 5 3 8 11 9 4 3 3 3 5 4 4 4 5 3 1 3 3 5 5 6 6 6 5 7 6
25 24 19 16 14 14 13 12 10 7 5 3 2 2 2 2 4 6 7 8 6 4 4 2 2 3 2 3 7 10 19 6 3 3 3 3 2 3 1 2 2 4 5 3 6 4 4 4 7 7 6 7 7 6
21 18 18 15 12 10 12 12 11 8 6 4 4 3 2 2 3 3 2 2 4 4 4 1 1 1 1 2 4 8 6 3 3 4 3 3 4 4 3 3 5 6 6 5 4 5 6 9 8 6 5 6 12 9
22 20 16 14 12 9 7 10 10 10 8 5 4 4 4 3 4 5 3 1 3 3 3 2 2 5 4 3 5 4 6 2 2 3 1 3 2 3 3 5 6 8 7 2 9 10 4 6 3 7 11 12 11 16
19 18 16 15 12 11 7 6 10 11 9 7 6 6 6 5 5 2 3 3 3 4 4 3 2 3 4 2 2 5 2 3 3 2 1 1 3 2 3 6 8 11 8 8 7 5 5 8 5 10 13 13 8 7
17 17 15 15 12 9 9 6 7 13 11 10 8 7 5 3 2 2 2 3 1 3 3 2 5 4 2 2 2 3 2 1 1 1 2 2 2 5 7 7 6 5 7 11 7 6 4 7 11 8 8 8 7 5
17 17 17 16 12 8 6 6 7 13 13 12 6 3 1 1 1 4 1 3 4 3 2 2 3 2 3 1 1 2 2 1 1 3 1 2 4 4 5 1 3 7 11 10 8 7 7 7 8 7 7 7 8 4
17 17 16 16 14 8 7 5 9 13 13 5 3 1 1 5 2 2 0 2 1 2 2 3 4 4 2 3 2 1 2 1 2 3 4 3 4 4 7 5 6 6 6 4 9 11 12 10 7 6 6 4 1 5
15 16 16 15 19 17 14 10 7 5 4 6 9 6 4 3 2 3 3 1 2 4 2 2 1 2 1 1 3 1 3 2 5 3 2 4 3 3 9 8 6 10 16 14 18 15 18 16 12 7 3 6 8 10
12 14 15 11 13 15 17 18 15 14 9 5 5 3 2 3 2 4 5 2 0 2 2 1 2 2 2 3 2 3 5 5 2 3 4 3 1 5 6 10 12 18 21 19 16 16 13 8 4 4 7 10 11 12
11 13 14 12 9 11 13 14 13 7 5 3 2 3 1 2 2 1 1 1 1 1 1 1 2 2 1 2 2 4 2 2 3 3 4 1 6 8 9 7 10 7 12 11 9 7 2 4 7 9 12 13 12 14
8 8 11 13 10 8 7 6 7 7 4 2 1 3 2 1 0 0 0 1 2 1 2 2 2 2 1 2 0 3 1 2 2 1 2 3 4 6 6 6 7 7 7 5 3 2 5 8 10 13 13 11 12 13
7 7 9 8 7 7 7 6 6 3 3 2 3 2 2 2 1 1 1 1 0 1 1 2 1 1 2 1 1 1 3 1 2 2 2 2 2 3 4 5 6 7 7 3 5 8 8 9 12 14 13 15 18 16
8 5 5 6 7 7 6 4 4 3 3 2 2 2 2 2 2 1 1 1 1 1 1 1 3 1 0 0 0 1 2 2 2 1 1 3 4 3 4 5 1 3 6 8 10 10 12 14 13 11 13 21 21 21
8 6 4 4 4 5 5 6 2 2 3 2 1 2 2 2 1 1 1 2 1 1 1 2 2 1 1 1 2 0 1 1 1 2 2 2 4 4 2 1 4 5 7 11 14 15 15 16 15 16 19 19 19 20
9 8 5 1 4 2 2 3 2 2 2 1 1 2 2 1 2 2 1 4 2 1 2 2 2 1 1 1 2 1 0 1 2 1 1 3 2 6 6 4 6 8 9 11 13 15 17 17 18 20 22 23 21 23
2 5 5 2 5 3 3 1 1 2 1 2 2 2 2 2 0 1 1 2 1 1 1 0 2 1 3 2 2 3 3 3 2 2 2 2 5 7 4 7 10 12 13 15 15 13 14 17 22 23 20 17 12 14
1 2 4 4 2 3 1 2 0 1 2 2 1 2 2 1 0 0 1 0 2 0 2 2 2 3 1 5 7 6 4 2 1 3 3 1 4 10 12 14 14 14 14 13 13 19 19 19 23 20 15 15 16 18
1 2 1 2 1 1 2 2 1 1 2 2 1 2 2 1 1 1 2 1 2 3 3 2 2 2 2 1 1 2 2 1 1 3 6 8 2 4 6 9 13 13 17 19 20 20 23 22 16 10 16 17 16 17
3 2 2 1 1 2 2 1 1 2 3 3 1 2 2 1 1 2 2 2 3 3 2 4 5 6 8 6 3 3 2 1 1 5 6 10 12 14 17 18 19 18 17 19 19 20 21 20 16 18 16 15 15 14
4 3 2 3 4 3 2 3 1 1 2 2 3 3 3 2 2 1 2 2 1 7 7 11 10 2 2 4 9 15 19 15 14 19 22 17 13 14 18 19 20 23 20 22 20 19 19 21 20 13 13 15 14 15
3 5 3 4 1 3 4 3 3 3 3 4 3 3 2 2 2 3 3 0 2 4 5 12 14 12 5 5 10 14 19 20 14 9 15 17 18 17 16 16 16 10 23 21 20 20 20 21 20 20 21 21 15 12
6 5 5 5 3 3 5 5 5 5 3 3 2 2 2 2 2 4 1 2 3 3 5 6 6 5 7 12 7 10 12 17 17 10 10 17 13 11 11 10 11 14 25 23 22 21 22 22 21 20 16 16 15 12
4 3 2 0 2 1 1 1 2 3 3 4 3 4 3 3 4 2 2 6 3 8 8 11 13 11 8 9 10 8 11 15 12 10 11 7 16 19 18 15 15 18 23 23 24 23 23 22 20 21 19 15 16 13
2 2 3 2 0 0 1 2 1 2 2 2 4 3 5 4 2 2 3 9 8 8 15 16 13 8 8 9 9 10 12 14 13 12 14 11 16 17 24 21 20 24 21 22 23 23 24 24 23 20 19 15 6 9
2 2 2 3 2 2 0 1 1 2 3 3 4 1 3 3 5 5 8 11 10 12 13 12 13 11 13 15 14 13 15 19 20 8 7 4 13 18 28 24 27 28 25 25 24 22 22 22 23 24 6 9 9 7
2 2 2 1 1 2 3 3 2 3 4 2 3 3 3 3 10 14 14 12 12 11 11 12 13 14 15 15 14 13 14 17 17 12 4 5 14 21 24 26 26 27 25 26 28 23 21 21 18 10 10 12 9 9
1 1 1 1 2 2 2 2 1 2 2 2 3 4 3 3 5 10 14 12 11 11 14 15 14 15 14 14 14 10 9 9 12 9 13 16 17 21 24 26 27 22 23 26 25 21 18 16 13 11 11 11 11 10
3 3 3 1 2 2 1 1 0 1 2 1 2 3 4 3 3 3 8 10 12 13 11 10 12 13 13 10 6 10 7 7 11 17 16 16 19 21 25 26 21 19 21 24 20 20 11 13 11 10 9 9 9 9
0 0 1 1 1 1 2 2 2 1 1 2 3 2 2 3 3 3 4 6 4 4 5 7 6 7 11 10 9 6 10 15 13 12 15 16 17 22 20 19 19 19 18 20 17 13 13 11 10 10 9 8 8 8

GFSWCAN_925_spd_006.txt.gz
Wind_Speed
36 33 30 27 25 22 19 16 13 11 8 8 8 9 10 9 8 8 8 7 3 3 2 4 3 5 4 3 5 5 4 4 3 4 3 4 3 5 2 4 6 7 6 4 3 2 7 7 5 7 6 3 7 6
34 32 29 27 24 21 18 15 13 11 8 8 8 9 9 9 8 8 6 7 9 4 3 6 11 8 0 8 6 1 6 4 5 4 1 3 1 1 3 3 3 2 7 5 9 7 5 6 6 2 6 5 6 7
31 30 28 25 23 21 18 15 12 10 8 7 7 8 9 10 10 10 10 8 6 4 4 4 3 8 9 7 11 5 2 5 4 3 4 3 3 4 4 6 2 4 5 3 3 5 7 7 2 5 5 6 6 6
30 29 27 25 22 19 16 13 11 9 7 6 7 7 8 10 12 9 10 8 8 6 4 4 3 4 6 6 5 4 11 9 8 3 3 3 3 4 3 3 4 5 4 4 4 4 2 2 3 7 7 7 7 8
30 27 25 22 20 18 16 14 11 9 7 6 6 7 7 9 12 13 14 13 8 5 4 2 2 4 5 5 7 13 20 6 3 2 2 3 2 3 1 2 3 4 7 4 7 7 6 5 7 8 8 8 8 8
29 25 21 18 17 15 14 12 11 10 8 7 7 6 6 7 11 4 3 5 7 4 4 1 4 5 8 6 7 8 5 3 3 4 3 2 3 4 4 4 7 5 5 6 5 6 6 4 9 8 7 6 9 16
26 24 22 17 14 12 12 11 11 10 9 8 8 8 7 6 5 6 4 2 4 4 3 2 3 4 5 5 5 3 6 2 3 2 1 3 2 4 3 4 6 8 8 7 4 7 3 4 6 7 13 15 19 18
24 21 19 18 14 11 10 12 11 11 10 9 10 11 10 11 10 6 9 7 4 8 5 3 2 4 4 2 1 3 2 2 3 2 1 2 2 2 3 8 8 9 10 4 8 2 6 7 8 11 19 18 11 8
23 21 17 14 12 12 9 10 14 12 11 11 12 10 5 4 3 2 5 5 6 5 4 2 5 4 2 2 1 3 2 1 2 2 2 3 2 5 7 7 6 7 7 8 7 6 7 10 12 11 10 7 8 5
23 22 18 14 12 11 10 10 15 14 14 12 4 5 3 3 2 3 2 4 5 3 2 2 2 2 3 1 2 2 2 1 1 3 1 2 4 5 6 7 6 6 7 11 8 7 9 10 10 6 7 6 7 5
23 23 24 18 14 11 11 12 16 17 12 3 3 2 2 4 2 4 2 3 0 2 1 1 2 3 1 3 2 1 2 0 1 4 4 3 3 4 6 5 2 5 7 8 13 14 15 12 8 7 6 6 5 1
20 21 22 22 20 14 12 12 9 5 5 6 11 7 3 4 3 3 2 1 2 2 2 1 1 2 1 2 3 1 3 2 6 2 2 3 3 6 1 6 9 14 19 17 25 18 14 14 10 8 5 3 4 6
19 17 18 19 20 21 19 16 16 17 11 5 5 4 2 3 2 4 6 1 1 2 2 1 1 1 2 2 2 2 4 5 2 3 3 2 4 7 9 10 12 20 25 19 15 16 11 7 5 8 5 6 7 9
18 18 15 14 15 15 14 14 9 6 4 3 3 3 2 2 1 1 1 1 1 0 1 1 2 1 0 1 1 3 1 2 2 2 3 2 6 8 8 6 9 5 9 13 10 9 7 6 6 6 7 9 10 11
14 14 14 15 14 12 10 9 8 7 5 3 2 3 2 1 2 1 1 1 1 0 1 2 2 1 1 2 1 2 1 1 2 0 1 1 3 4 4 3 4 4 5 7 5 5 5 5 5 8 9 9 9 10
7 8 15 12 12 12 10 7 7 4 4 3 3 3 1 1 1 1 1 1 0 1 1 1 1 1 1 1 1 2 3 0 1 0 1 1 2 3 3 3 5 4 2 1 2 5 7 8 9 10 13 13 14 15
15 9 10 10 11 13 12 5 6 4 3 2 2 2 2 2 2 0 0 1 0 1 1 0 2 2 1 1 0 2 2 2 1 1 2 2 2 3 4 4 1 1 4 6 7 8 10 11 9 11 13 18 17 17
12 9 6 7 9 8 6 7 3 3 4 2 2 1 1 1 1 1 1 1 1 1 1 0 2 1 1 1 1 1 1 2 2 2 2 2 4 3 1 2 3 3 4 6 7 8 10 12 12 15 17 19 19 17
11 9 9 8 9 4 4 5 5 2 1 2 2 2 2 1 1 1 2 5 3 1 2 2 2 1 1 2 2 2 1 2 2 2 2 3 1 2 4 3 5 7 9 10 12 13 14 12 13 16 17 17 13 12
5 7 8 5 7 4 3 1 2 3 1 2 2 2 2 2 0 1 1 1 1 1 1 1 3 2 3 2 3 3 2 2 2 2 2 2 4 5 5 6 8 9 10 12 13 14 15 19 20 20 17 14 9 13
5 5 7 7 5 5 2 0 1 1 2 2 2 2 1 1 1 1 0 1 1 1 2 2 2 3 2 2 5 9 7 5 2 3 3 1 3 7 8 10 9 12 11 15 16 20 21 20 24 25 18 13 12 15
2 4 4 3 4 4 1 4 1 1 2 1 1 2 2 1 2 2 1 0 2 2 3 2 2 2 2 2 3 3 6 6 4 3 4 3 4 8 11 16 18 15 16 15 16 16 17 21 26 24 22 23 17 13
1 2 2 3 1 1 3 2 1 1 2 2 1 2 1 1 0 1 1 2 2 3 3 3 3 4 10 15 17 17 12 14 13 14 16 14 14 15 16 16 17 14 11 13 15 16 18 21 20 22 23 20 17 18
1 1 0 1 3 2 1 1 1 1 1 2 3 2 2 2 1 0 2 1 1 4 5 9 6 6 13 14 11 13 16 15 13 12 16 15 10 12 13 14 13 15 17 16 17 18 19 22 24 23 22 22 21 21
1 4 2 4 2 2 2 1 2 2 3 3 3 2 2 2 2 1 2 1 1 3 5 11 13 12 6 5 9 12 17 17 12 7 15 13 11 12 14 13 13 17 25 20 20 21 21 23 23 22 23 22 23 20
5 4 6 4 3 3 4 4 4 5 3 3 2 2 2 2 2 3 0 2 2 2 5 5 5 4 6 10 6 8 10 13 9 9 12 14 17 15 11 10 11 14 26 20 20 21 22 22 22 23 23 24 23 23
2 3 2 2 2 2 1 1 2 2 3 4 3 3 2 3 4 1 1 6 2 8 14 14 14 12 8 9 11 13 13 13 9 4 14 15 17 20 18 15 14 19 22 20 20 22 22 23 23 24 23 23 22 9
2 1 2 2 2 0 1 1 2 1 1 2 3 2 4 4 1 2 3 7 15 17 19 17 14 11 14 15 13 12 15 15 11 17 8 9 15 13 23 22 23 23 22 21 21 24 22 23 25 26 25 17 4 9
2 2 2 3 3 2 2 1 1 1 2 2 3 2 2 3 6 6 7 12 12 13 16 16 16 16 15 13 13 14 16 17 17 5 4 3 9 12 24 26 27 27 22 22 24 24 19 17 21 14 15 8 9 10
2 1 2 1 1 1 1 2 2 3 3 3 4 3 2 3 10 12 13 13 15 15 16 17 14 13 14 14 9 10 13 13 15 13 2 3 11 17 23 26 28 24 21 21 25 24 18 17 16 15 14 12 12 11
2 2 1 1 2 2 2 2 1 1 1 2 4 3 3 3 4 15 14 13 13 13 13 14 14 12 11 11 10 7 8 7 10 12 10 9 13 18 21 23 19 18 19 20 22 19 14 15 15 12 12 11 11 10
2 2 2 2 2 2 2 3 3 2 2 1 2 3 3 3 2 4 6 5 7 11 9 7 7 8 7 7 6 5 4 9 11 10 10 12 15 19 19 17 16 17 17 18 17 13 13 12 12 11 10 10 9 9
2 4 4 3 4 4 3 3 4 3 3 2 2 2 2 3 3 3 4 4 5 6 7 8 6 4 4 6 6 7 10 9 8 9 9 11 15 16 17 16 16 15 15 18 13 10 11 11 11 10 9 9 9 9

GFSWCAN_925_spd_009.txt.gz
Wind_Speed
42 39 36 33 30 27 24 21 19 16 13 11 12 11 11 14 13 10 7 4 3 3 2 1 2 6 4 3 5 5 4 4 3 4 3 4 3 5 2 4 5 7 6 4 3 1 8 7 4 7 6 1 9 8
39 36 34 32 29 26 23 20 17 15 13 11 11 12 11 15 18 11 6 11 12 5 3 4 10 7 1 7 6 2 5 4 5 4 1 3 2 2 2 3 2 3 7 5 9 6 4 6 5 4 6 6 7 8
37 35 32 30 28 25 22 19 16 13 12 12 11 11 11 11 11 10 13 8 8 4 4 4 3 8 8 4 6 5 2 5 3 3 3 3 3 4 4 6 1 4 4 3 2 5 8 8 5 4 7 6 6 7
35 33 31 28 25 23 19 16 14 12 12 11 11 12 12 12 11 12 10 8 9 4 4 4 5 5 9 4 3 4 12 9 8 3 3 3 3 4 3 3 4 5 5 4 5 7 5 7 7 6 6 5 6 7
34 31 29 26 24 21 18 15 14 12 11 11 10 11 12 14 15 18 19 15 8 5 4 2 3 7 12 7 11 15 20 6 3 2 2 3 2 3 1 1 3 5 7 4 7 8 6 6 6 7 9 9 8 8
29 27 26 24 21 19 17 15 13 12 11 10 9 9 9 11 10 4 4 9 10 5 4 2 4 5 12 13 15 11 6 3 3 4 3 2 3 3 4 4 7 5 5 7 8 6 7 4 5 6 9 8 6 9
28 24 22 22 20 18 17 15 14 13 12 12 11 9 7 7 4 8 4 2 5 5 3 3 3 4 5 5 4 3 6 2 2 3 2 3 2 4 4 4 11 8 9 8 7 5 2 4 5 6 7 10 19 19
28 24 20 18 16 16 16 15 15 14 13 14 14 14 16 16 13 8 10 8 6 10 4 4 2 4 6 2 2 3 2 2 3 2 1 2 1 2 3 11 7 8 8 7 6 7 5 4 6 9 18 19 13 11
24 23 21 19 16 15 15 15 15 14 14 14 13 12 5 5 4 2 6 8 12 7 4 2 5 4 2 2 1 3 2 2 2 2 2 3 2 5 7 4 4 5 5 5 1 3 5 6 11 12 12 10 13 5
23 20 19 18 17 14 15 16 17 15 13 11 4 5 3 4 3 3 3 4 5 3 3 2 1 2 2 1 2 2 2 1 1 3 2 2 3 4 4 5 7 8 7 5 5 5 8 11 12 12 11 7 6 7
29 27 22 19 18 17 18 17 15 13 9 4 3 2 2 3 2 3 3 3 1 3 3 1 2 2 2 3 2 1 2 0 2 4 3 2 3 3 10 8 8 7 9 10 13 16 15 13 13 10 5 4 5 5
29 29 26 21 18 16 15 16 16 5 5 6 11 7 2 4 3 5 2 1 1 2 2 1 1 1 0 2 3 1 2 1 5 1 1 3 2 5 8 11 13 16 21 19 25 21 19 16 10 6 4 2 5 6
24 25 26 25 22 18 16 16 14 18 11 5 6 4 3 3 3 4 5 1 2 2 2 2 1 1 2 3 2 2 4 4 1 2 3 1 4 6 7 8 11 15 21 19 14 12 10 9 7 3 1 3 4 6
21 23 23 23 20 18 16 11 9 6 5 4 3 3 1 1 2 2 1 2 1 0 1 1 2 2 1 2 1 2 0 1 2 2 2 2 3 5 6 5 6 5 7 9 10 9 7 5 3 3 4 4 6 6
20 20 21 22 18 14 10 9 8 7 5 3 3 3 2 1 2 1 1 1 1 0 1 2 2 1 2 2 1 1 1 1 1 1 1 1 3 4 4 3 5 6 6 5 4 3 3 1 1 4 5 8 7 7
8 11 22 18 18 16 8 7 7 5 4 3 3 3 1 2 1 1 1 1 0 1 1 2 1 2 1 1 2 3 3 1 1 1 1 1 3 6 5 3 2 4 5 2 2 2 4 7 8 9 11 11 11 11
16 8 15 15 15 12 9 5 4 5 3 3 2 2 2 2 2 1 1 1 1 1 1 1 3 3 1 1 1 1 1 2 1 1 1 3 3 5 6 5 4 3 7 8 8 8 8 8 8 8 10 14 14 14
15 14 14 16 17 8 6 8 4 3 4 2 2 1 2 2 2 2 1 1 1 2 1 2 2 2 2 2 1 1 1 2 2 2 1 1 3 4 2 1 3 3 4 5 5 7 9 10 11 13 16 17 17 17
13 14 13 15 15 5 4 6 5 3 2 1 2 2 2 2 1 0 1 5 1 2 3 2 3 2 2 3 3 3 2 2 3 2 1 2 2 1 2 3 2 3 4 6 8 10 12 12 14 17 20 20 19 18
11 14 13 13 12 4 4 3 3 3 2 2 2 2 2 1 1 2 2 2 1 1 1 1 3 3 3 3 3 3 3 4 3 2 1 2 3 5 6 7 8 8 10 12 14 17 19 20 21 24 25 18 16 16
9 15 12 10 7 11 2 2 3 2 1 2 1 2 1 1 1 1 1 1 1 2 2 2 2 2 1 1 3 7 8 6 2 3 3 1 7 15 15 16 13 15 14 12 11 13 14 15 18 19 19 18 19 22
8 11 8 8 6 4 2 6 1 1 2 1 1 1 1 1 1 1 1 1 2 2 2 2 1 1 2 4 8 9 7 11 11 12 10 9 4 6 8 13 15 12 12 12 12 12 14 15 19 22 20 22 23 22
7 8 4 4 3 3 2 4 1 1 1 1 1 1 0 0 0 1 1 2 1 3 2 3 7 14 15 14 18 21 16 15 13 13 14 11 12 12 12 13 13 12 10 11 14 15 17 21 23 24 24 20 20 22
3 5 4 3 3 2 2 3 2 1 1 1 2 2 1 2 1 1 2 2 0 4 4 4 9 6 11 13 11 13 13 12 12 13 13 9 10 11 11 11 14 16 17 13 14 19 22 24 24 25 23 23 22 22
3 4 2 2 2 1 1 2 3 1 3 3 2 2 2 1 2 2 2 1 1 2 3 9 11 9 6 5 9 10 15 12 8 11 13 12 11 11 12 12 11 15 21 22 20 21 24 25 25 25 25 25 25 24
1 3 4 3 3 2 4 2 3 5 3 3 4 1 1 2 3 2 1 2 1 2 4 6 5 5 6 10 7 7 8 9 8 13 9 13 15 15 11 9 10 13 21 19 19 20 23 24 23 25 25 26 26 25
2 3 3 3 2 2 2 2 2 2 3 4 3 3 2 3 2 1 1 6 3 8 12 15 14 11 10 10 12 11 9 5 7 13 14 13 15 17 17 15 13 16 19 16 15 18 22 22 22 24 25 22 14 15
3 2 1 2 2 1 1 2 2 1 1 1 2 1 2 1 2 2 3 8 13 15 17 18 17 16 17 16 12 12 14 13 14 9 7 9 8 10 19 18 19 18 15 14 15 18 17 17 19 20 15 14 15 15
0 2 1 3 3 2 2 2 2 2 3 0 2 2 2 3 5 7 7 8 9 13 17 16 17 15 14 12 12 13 13 12 9 5 3 3 9 10 19 21 21 18 17 17 17 17 13 12 13 15 13 11 12 12
2 1 2 2 1 1 1 1 2 2 4 4 4 3 3 3 8 8 8 9 13 15 15 15 12 10 11 9 10 9 10 11 13 11 1 3 8 15 18 21 20 19 19 18 18 17 12 14 16 15 14 13 12 12
2 2 1 1 1 1 2 3 2 1 1 3 5 3 3 3 4 13 14 12 12 10 10 12 12 10 8 9 7 3 3 6 10 8 7 8 10 14 17 19 18 18 17 17 18 14 13 14 14 13 12 12 11 11
2 2 1 2 2 3 5 3 2 2 3 2 2 3 2 3 2 3 4 4 7 12 10 8 6 5 5 6 6 6 6 7 8 9 9 8 12 14 17 17 17 16 16 17 15 10 10 11 12 12 11 10 10 10
3 3 3 3 4 5 3 3 5 4 4 2 2 2 2 3 3 2 4 6 8 8 9 8 8 5 3 4 5 6 7 7 8 8 7 10 12 14 16 16 15 14 15 15 13 11 10 10 11 9 9 9 9 10

GFSWCAN_925_spd_012.txt.gz
Wind_Speed
40 38 37 36 33 31 28 25 23 19 17 16 14 15 23 32 27 11 3 6 3 3 1 2 2 5 4 3 5 6 4 3 3 4 3 4 3 5 2 4 6 7 6 4 3 2 7 6 3 7 6 2 6 8
40 37 35 34 32 29 27 24 21 18 17 15 15 12 21 29 28 13 5 8 9 5 3 5 9 5 1 6 6 0 4 4 5 5 1 3 2 2 2 3 2 2 6 4 9 6 4 6 5 4 2 3 5 7
39 37 35 33 30 28 25 22 20 18 15 17 15 14 19 25 27 21 12 9 7 4 4 4 3 6 8 4 6 5 2 5 3 2 4 3 3 4 4 6 1 4 4 3 2 4 8 8 6 6 6 8 4 6
38 36 33 31 29 26 23 21 19 18 15 16 15 16 20 22 19 18 10 7 9 4 4 3 5 5 11 3 2 3 13 9 7 3 3 3 3 4 3 3 3 4 5 4 5 9 6 9 8 10 7 6 5 4
36 33 31 28 27 24 21 19 17 17 17 16 16 16 19 20 19 22 21 15 8 6 4 2 1 9 14 7 14 17 19 6 3 3 3 3 3 4 1 2 3 5 7 4 6 10 5 7 5 2 7 9 8 7
33 31 28 25 23 20 19 18 16 16 16 15 15 15 17 15 10 6 4 11 12 6 4 2 3 5 13 16 19 11 7 4 3 3 3 2 1 3 4 3 8 5 4 6 8 2 6 6 4 3 5 5 6 6
30 27 25 23 22 19 17 16 15 17 17 15 13 12 10 7 8 9 4 3 7 5 3 3 3 5 6 5 4 4 6 3 3 2 1 3 1 3 3 3 11 7 8 8 7 2 5 4 5 1 4 9 17 18
23 23 22 21 20 17 16 16 15 16 17 18 19 20 19 18 15 11 16 10 8 11 4 4 2 3 8 2 2 3 2 2 4 2 1 2 2 2 3 7 6 7 7 6 6 7 3 3 8 9 15 18 15 13
21 19 17 18 19 15 16 15 14 15 16 15 15 13 6 8 5 3 6 11 15 8 4 2 4 3 3 2 1 3 2 2 1 1 1 3 1 4 2 7 8 8 5 7 4 5 7 11 11 12 14 14 17 11
23 20 17 17 17 16 15 13 12 14 13 11 5 6 3 4 4 4 4 4 5 4 3 3 1 2 2 1 2 2 2 0 1 3 2 2 2 3 10 8 8 9 7 3 3 6 8 12 12 13 14 11 11 7
27 24 20 18 17 16 16 13 13 12 8 4 4 2 2 4 3 4 3 4 2 3 2 1 1 2 2 2 2 0 2 0 1 3 2 1 2 4 9 9 9 11 15 16 17 18 16 15 13 10 6 7 9 7
27 26 25 22 18 16 14 12 10 4 5 7 12 7 3 5 4 6 2 1 2 3 1 2 1 1 1 2 3 1 2 1 4 0 0 1 2 4 5 7 10 15 20 19 23 18 17 14 8 5 1 1 1 2
31 28 26 23 21 17 12 10 15 18 10 5 5 4 3 3 4 4 4 0 1 1 1 1 1 0 2 3 3 2 3 3 1 1 1 2 3 4 5 5 7 13 17 18 13 12 12 8 4 2 2 2 4 5
28 28 27 25 20 16 13 12 8 6 6 4 4 4 2 2 3 2 1 2 1 0 1 1 2 2 1 3 1 2 0 0 2 3 2 1 2 4 4 5 6 5 7 7 7 7 6 6 4 4 4 5 7 7
23 24 24 26 19 12 11 10 8 7 6 3 3 3 2 2 2 1 1 2 1 1 1 2 2 2 2 2 1 2 2 2 2 3 1 2 3 4 5 4 4 2 2 3 2 2 2 3 5 6 6 6 6 7
9 13 29 23 16 10 7 7 8 5 5 3 4 3 2 2 2 1 1 1 0 1 1 2 2 2 1 1 2 3 3 4 2 1 2 3 3 4 3 3 2 2 3 5 5 4 3 3 4 6 8 7 7 8
18 13 21 20 12 11 5 6 5 5 4 3 2 2 2 3 2 1 1 1 1 1 1 2 3 4 2 2 1 1 3 4 4 2 3 5 5 5 6 4 3 2 2 1 1 4 6 8 10 14 16 19 19 19
17 18 18 19 11 7 6 9 4 4 5 2 2 2 2 1 2 2 1 2 2 1 1 1 3 2 3 4 2 2 2 3 0 2 2 3 5 6 5 2 2 3 5 9 11 12 14 16 15 13 18 21 22 21
18 18 17 19 12 5 4 6 5 4 2 1 1 1 2 1 1 1 1 4 1 2 3 2 3 2 3 2 3 3 3 2 3 2 1 3 3 4 5 5 6 8 10 10 12 13 13 12 13 15 14 15 15 17
14 18 19 15 10 5 4 3 3 3 2 0 2 2 2 1 2 1 2 2 2 1 2 1 3 2 3 2 3 3 4 5 3 2 2 3 8 11 12 12 12 9 10 9 9 12 12 12 15 17 19 20 20 20
15 21 16 13 8 12 3 3 3 2 1 2 1 1 1 1 1 2 2 2 2 1 1 1 1 1 2 3 6 6 7 4 1 3 2 3 9 15 14 14 12 14 11 11 11 13 15 13 16 22 24 23 21 20
10 14 8 10 8 6 4 10 1 2 2 0 1 1 1 1 1 1 1 1 1 1 1 1 2 1 1 4 8 10 12 15 14 14 15 12 4 5 9 11 12 11 11 12 12 12 16 16 20 22 23 24 20 22
7 7 5 7 5 5 2 8 3 4 2 1 1 1 1 0 1 2 1 1 0 2 1 2 6 13 14 14 17 18 16 17 15 14 14 13 13 11 12 15 16 16 12 12 12 14 18 19 21 23 24 25 26 26
7 5 4 3 4 1 2 3 2 2 2 1 1 2 1 1 2 2 1 1 2 3 2 5 9 6 10 12 9 12 12 14 15 17 13 10 11 12 11 11 12 13 13 12 13 15 18 21 22 23 24 26 26 23
5 5 3 3 2 5 3 3 2 1 2 2 1 3 2 1 1 1 1 2 2 3 3 6 9 8 5 5 9 11 13 11 11 12 13 12 12 10 9 9 7 9 17 18 19 19 20 23 22 22 23 24 23 22
5 3 2 1 2 1 1 1 2 2 2 2 4 1 1 2 2 1 2 4 3 4 5 5 6 6 7 10 7 7 8 7 8 11 8 11 14 13 10 8 10 10 17 15 16 17 20 21 21 21 21 18 20 20
2 3 2 1 1 1 2 2 2 2 2 3 1 0 1 1 2 2 2 8 3 9 13 13 13 13 11 10 10 10 9 7 7 13 13 10 11 13 13 12 12 14 15 14 13 14 18 19 19 19 18 17 15 17
0 1 1 3 1 2 2 1 1 2 2 2 1 3 2 2 1 2 3 7 10 14 17 18 18 18 19 17 13 11 13 14 13 10 7 5 3 7 14 14 14 13 13 13 15 15 14 13 15 15 16 14 15 15
1 2 1 2 2 3 2 2 2 2 3 0 2 2 2 2 4 5 7 5 7 11 15 15 14 13 14 13 13 13 10 4 1 4 3 3 6 6 14 16 17 16 16 17 15 14 11 9 12 12 12 11 10 10
2 1 2 1 2 1 0 2 1 1 4 3 4 3 3 3 8 6 6 8 12 14 11 9 6 5 6 6 7 7 7 8 9 6 2 3 5 12 15 18 19 19 18 17 18 17 11 11 12 13 13 12 11 11
1 1 0 1 0 1 2 4 3 0 4 3 5 3 2 3 4 13 12 10 8 7 7 9 9 8 7 7 6 4 2 5 9 8 8 8 9 13 15 17 18 18 17 17 18 14 12 12 13 13 12 11 11 11
2 2 2 2 3 3 6 3 2 2 2 2 2 2 3 3 2 3 4 4 5 9 8 7 5 3 4 5 5 5 5 8 9 10 10 9 11 13 15 16 17 16 16 16 15 13 12 12 12 11 11 11 11 12
3 3 3 2 3 5 3 3 5 4 4 2 2 1 1 3 2 1 4 5 6 6 6 5 4 2 3 5 6 7 8 10 10 10 10 10 13 14 14 16 17 16 15 15 14 13 11 11 11 11 10 11 12 12